Location: Kawakawa
(35.3830°S, 174.0670°E)
Time: 17:42:31
(UTC+12:00)

CZ-4 R/B - Pass Details

Date: 15 August 2020
Orbit: 580 x 589 km, 97.8° (Epoch: 25 September)

Event Time Altitude Azimuth Distance (km) Brightness Sun altitude
Exits shadow 19:19:05 17° 155° (SSE) 1,550 6.3 -18.3°
Maximum altitude 19:22:15 56° 80° (E) 709 4.5 -18.9°
Drops below altitude 10° 19:26:21 10° 1° (N) 1,918 7.1 -19.7°
Sets 19:28:31 0° 356° (N) 2,809 8.0 -20.2°
